Weather History for Hallock, MN

Change the Weather History Date:

Monday, December 10, 2012

  Actual Average Record
Temperature  
Mean Temperature -3 °F -  
Max Temperature 12 °F 16 °F 46 °F (1990)
Min Temperature -18 °F 0 °F -28 °F (1977)
Degree Days  
Heating Degree Days 68    
Moisture  
Dew Point -4 °F    
Average Humidity 82    
Maximum Humidity 92    
Minimum Humidity 70    
Precipitation  
Precipitation 0.00 in - - ()
Sea Level Pressure  
Sea Level Pressure 29.84 in    
Wind  
Wind Speed 12 mph (SSE)    
Max Wind Speed 22 mph    
Max Gust Speed 25 mph    
Visibility 9 miles    
Events Snow    
Averages and records for this station are not official NWS values.
T = Trace of Precipitation, MM = Missing Value Source: NWS Daily Summary

Daily Weather History Graph

Daily Weather History Graph

Search for Another Location

Airport:

Trip Planner

Search our weather history database for the weather conditions in past years. The results will help you decide how hot, cold, wet, or windy it might be!

Date:

Astronomy

Dec. 10, 2012 Rise Set
Actual Time 8:10 AM CST 4:31 PM CST
Civil Twilight 7:33 AM CST 5:08 PM CST
Nautical Twilight 6:53 AM CST 5:48 PM CST
Astronomical Twilight 6:14 AM CST 6:26 PM CST
Moon 4:45 AM CST (12/10) 2:29 PM CST (12/10)
Length of Visible Light 9h 34m
Length of Day
8h 21m
Waning Crescent, 10% of the Moon is Illuminated
Dec 10
Waning Crescent
Dec 13
New
Dec 19
First Quarter
Dec 28
Full
Jan 4
Last Quarter

Hourly Weather History & Observations

Time (CST) Temp. Windchill Dew Point Humidity Pressure Visibility Wind Dir Wind Speed Gust Speed Precip Events Conditions
12:14 AM -18.4 °F -28.9 °F -23.8 °F 76% 30.14 in 10.0 mi SSE 3.5 mph - N/A   Clear
12:34 AM -18.4 °F -33.4 °F -23.8 °F 76% 30.13 in 10.0 mi SSE 5.8 mph - N/A   Clear
12:54 AM -18.4 °F -31.4 °F -23.8 °F 76% 30.12 in 10.0 mi SSE 4.6 mph - N/A   Clear
1:14 AM -16.6 °F -32.9 °F -22.0 °F 76% 30.11 in 10.0 mi SSE 6.9 mph - N/A   Clear
1:34 AM -18.4 °F -35.1 °F -23.8 °F 76% 30.10 in 10.0 mi SSE 6.9 mph - N/A   Clear
1:54 AM -18.4 °F -33.4 °F -25.6 °F 70% 30.10 in 10.0 mi South 5.8 mph - N/A   Clear
2:14 AM -18.4 °F -36.6 °F -23.8 °F 76% 30.09 in 10.0 mi SSE 8.1 mph - N/A   Clear
2:54 AM -18.4 °F -37.9 °F -23.8 °F 76% 30.06 in 10.0 mi SSE 9.2 mph - N/A   Clear
3:14 AM -18.4 °F -37.9 °F -23.8 °F 76% 30.05 in 10.0 mi SSE 9.2 mph - N/A   Clear
3:34 AM -18.4 °F -37.9 °F -23.8 °F 76% 30.04 in 10.0 mi SSE 9.2 mph - N/A   Clear
3:54 AM -16.6 °F -36.8 °F -22.0 °F 76% 30.02 in 10.0 mi SE 10.4 mph - N/A   Clear
4:14 AM -16.6 °F -35.7 °F -20.2 °F 84% 30.01 in 10.0 mi SE 9.2 mph - N/A   Clear
4:34 AM -16.6 °F -36.8 °F -20.2 °F 84% 30.00 in 10.0 mi SSE 10.4 mph - N/A   Clear
4:54 AM -14.8 °F -34.6 °F -20.2 °F 77% 29.99 in 10.0 mi SSE 10.4 mph - N/A   Clear
5:14 AM -13.0 °F -33.4 °F -18.4 °F 77% 29.98 in 10.0 mi SSE 11.5 mph - N/A   Clear
5:34 AM -13.0 °F -32.4 °F -18.4 °F 77% 29.97 in 10.0 mi SSE 10.4 mph - N/A   Clear
5:54 AM -13.0 °F -33.4 °F -18.4 °F 77% 29.96 in 10.0 mi SSE 11.5 mph - N/A   Clear
6:13 AM -13.0 °F -31.3 °F -18.4 °F 77% 29.96 in 10.0 mi SSE 9.2 mph - N/A   Clear
6:34 AM -13.0 °F -32.4 °F -16.6 °F 84% 29.95 in 10.0 mi SSE 10.4 mph - N/A   Scattered Clouds
7:13 AM -11.2 °F -32.1 °F -16.6 °F 77% 29.93 in 10.0 mi SSE 12.7 mph - N/A   Clear
7:34 AM -11.2 °F -32.9 °F -16.6 °F 77% 29.92 in 10.0 mi SSE 13.8 mph - N/A   Clear
7:54 AM -9.4 °F -30.6 °F -14.8 °F 77% 29.91 in 10.0 mi SSE 13.8 mph - N/A   Clear
8:13 AM -9.4 °F -30.6 °F -14.8 °F 77% 29.90 in 10.0 mi SSE 13.8 mph - N/A   Clear
8:34 AM -7.6 °F -29.1 °F -11.2 °F 84% 29.89 in 10.0 mi SSE 15.0 mph - N/A   Clear
8:54 AM -7.6 °F -27.5 °F -11.2 °F 84% 29.89 in 10.0 mi SSE 12.7 mph - N/A   Clear
9:13 AM -7.6 °F -29.1 °F -11.2 °F 84% 29.89 in 10.0 mi SSE 15.0 mph - N/A   Clear
9:34 AM -5.8 °F -26.8 °F -11.2 °F 77% 29.88 in 10.0 mi SSE 15.0 mph - N/A   Clear
9:53 AM -5.8 °F -28.8 °F -9.4 °F 84% 29.87 in 10.0 mi SSE 18.4 mph - N/A   Clear
10:14 AM -4.0 °F -25.8 °F -7.6 °F 85% 29.87 in 10.0 mi SSE 17.3 mph - N/A   Clear
10:34 AM -2.2 °F -23.5 °F -7.6 °F 78% 29.86 in 7.0 mi SSE 17.3 mph - N/A   Clear
10:53 AM -2.2 °F -23.5 °F -5.8 °F 85% 29.86 in 10.0 mi SSE 17.3 mph - N/A   Clear
11:14 AM -0.4 °F -21.2 °F -4.0 °F 85% 29.84 in 10.0 mi SSE 17.3 mph - N/A   Clear
11:33 AM 1.4 °F -18.8 °F -2.2 °F 85% 29.83 in 10.0 mi SSE 17.3 mph - N/A   Clear
11:54 AM 3.2 °F -17.1 °F -0.4 °F 85% 29.81 in 7.0 mi SSE 18.4 mph - N/A   Clear
12:14 PM 3.2 °F -17.6 °F -0.4 °F 85% 29.80 in 7.0 mi SSE 19.6 mph - N/A   Clear
12:33 PM 5.0 °F -14.7 °F 1.4 °F 85% 29.79 in 7.0 mi SSE 18.4 mph - N/A   Clear
12:54 PM 6.8 °F -13.4 °F 1.4 °F 79% 29.77 in 7.0 mi SSE 20.7 mph - N/A   Clear
1:14 PM 6.8 °F -13.4 °F 3.2 °F 85% 29.76 in 10.0 mi SSE 20.7 mph - N/A   Clear
1:33 PM 8.6 °F -11.4 °F 3.2 °F 79% 29.75 in 7.0 mi SSE 21.9 mph - N/A   Clear
1:54 PM 8.6 °F -11.4 °F 5.0 °F 85% 29.74 in 7.0 mi SSE 21.9 mph - N/A   Clear
2:14 PM 10.4 °F -8.2 °F 5.0 °F 79% 29.74 in 10.0 mi SSE 19.6 mph - N/A   Clear
2:33 PM 10.4 °F -7.2 °F 6.8 °F 85% 29.74 in 10.0 mi SSE 17.3 mph - N/A   Clear
2:54 PM 10.4 °F -6.6 °F 6.8 °F 85% 29.74 in 10.0 mi South 16.1 mph 23.0 mph N/A   Scattered Clouds
3:14 PM 12.2 °F -5.8 °F 6.8 °F 79% 29.73 in 10.0 mi South 19.6 mph - N/A   Mostly Cloudy
3:33 PM 12.2 °F -6.3 °F 6.8 °F 79% 29.73 in 10.0 mi South 20.7 mph - N/A   Mostly Cloudy
3:54 PM 12.2 °F -5.8 °F 6.8 °F 79% 29.73 in 10.0 mi South 19.6 mph 25.3 mph N/A   Mostly Cloudy
4:13 PM 12.2 °F -6.3 °F 8.6 °F 85% 29.73 in 10.0 mi South 20.7 mph - N/A   Overcast
4:34 PM 12.2 °F -5.3 °F 8.6 °F 85% 29.73 in 10.0 mi South 18.4 mph - N/A   Overcast
4:54 PM 12.2 °F -5.3 °F 8.6 °F 85% 29.72 in 5.0 mi SSE 18.4 mph - N/A Snow Light Snow
5:14 PM 12.2 °F -6.3 °F 8.6 °F 85% 29.72 in 5.0 mi South 20.7 mph - N/A Snow Light Snow
5:34 PM 12.2 °F -5.3 °F 8.6 °F 85% 29.72 in 4.0 mi SSE 18.4 mph - N/A Snow Light Snow
5:53 PM 12.2 °F -5.8 °F 8.6 °F 85% 29.72 in 10.0 mi South 19.6 mph - N/A   Overcast
6:14 PM 12.2 °F -6.3 °F 8.6 °F 85% 29.72 in 10.0 mi South 20.7 mph 24.2 mph N/A Snow Light Snow
6:34 PM 12.2 °F -5.3 °F 8.6 °F 85% 29.71 in 7.0 mi South 18.4 mph - N/A Snow Light Snow
6:54 PM 12.2 °F -4.8 °F 8.6 °F 85% 29.71 in 5.0 mi South 17.3 mph - N/A Snow Light Snow
7:14 PM 10.4 °F -7.2 °F 8.6 °F 92% 29.71 in 7.0 mi South 17.3 mph - N/A Snow Light Snow
7:34 PM 10.4 °F -8.2 °F 8.6 °F 92% 29.70 in 10.0 mi South 19.6 mph - N/A Snow Light Snow
7:54 PM 10.4 °F -6.6 °F 6.8 °F 85% 29.71 in 10.0 mi South 16.1 mph - N/A Snow Light Snow
8:14 PM 10.4 °F -6.0 °F 6.8 °F 85% 29.70 in 10.0 mi South 15.0 mph - N/A   Overcast
8:54 PM 10.4 °F -4.8 °F 8.6 °F 92% 29.70 in 10.0 mi South 12.7 mph - N/A Snow Light Snow
9:14 PM 10.4 °F -5.4 °F 8.6 °F 92% 29.69 in 10.0 mi South 13.8 mph - N/A Snow Light Snow
9:34 PM 12.2 °F -2.5 °F 8.6 °F 85% 29.69 in 10.0 mi South 12.7 mph - N/A   Overcast
9:54 PM 12.2 °F -1.8 °F 8.6 °F 85% 29.70 in 10.0 mi SSW 11.5 mph - N/A Snow Light Snow
10:14 PM 12.2 °F -1.8 °F 10.4 °F 92% 29.69 in 10.0 mi SSW 11.5 mph - N/A   Overcast
10:34 PM 12.2 °F -1.0 °F 10.4 °F 92% 29.69 in 10.0 mi SSW 10.4 mph - N/A Snow Light Snow
10:54 PM 12.2 °F -0.2 °F 10.4 °F 92% 29.69 in 7.0 mi SW 9.2 mph - N/A Snow Light Snow
11:14 PM 12.2 °F -1.0 °F 10.4 °F 92% 29.69 in 4.0 mi West 10.4 mph - N/A Snow Light Snow
11:34 PM 12.2 °F -2.5 °F 8.6 °F 85% 29.70 in 10.0 mi NW 12.7 mph - N/A Snow Light Snow
11:54 PM 12.2 °F -3.1 °F 8.6 °F 85% 29.70 in 10.0 mi NNW 13.8 mph - N/A   Overcast